www.pogodaiklimat.ru

Погода и климат >> Архив погоды >> Россия >> Свердловская область >> Ивдель


ПОГОДА в Ивдель

  • Прогноз погоды в Ивдель
  • Монитор погоды в Ивдель
  • Климат города

АРХИВ ПОГОДЫ в Ивдель

Время (UTC), дата Ветер
(напр.,м/с)
 
Видим.   Явления Облачность Т
(С)
Тd
(С)
f
(%)
Тe
(С)
Тes
(С)
Комфортность P
(гПа)
Po
(гПа)
Тmin
(С)
Tmax
(С)
R
(мм)
R24
(мм)
S
(см)
21 12.10 С 1 2000 м дымка 10/10 210 м
[St]
+1.5 +0.5 93 -0 -0 1020.5 1008.7
00 13.10 штиль 0 4000 м дымка 9/6 600 м
[Cb cap Ac trans]
+1.4 +0.5 94 0 0 1020.0 1008.1
03 13.10 штиль 0 700 м туман 10/5 1000 м
[Sc Ac As]
+1.1 +0.2 94 -0 -0 1019.4 1007.5 +1.1
06 13.10 штиль 0 3600 м дымка {туман} 10/4 1000 м
[Sc Ac As]
+3.0 +1.3 89 +2 +2 1019.1 1007.3
09 13.10 С 1 15 км 10/4 1000 м
[Sc Ac As]
+5.0 +1.8 80 +4 +4 1017.7 1006.1
12 13.10 штиль 0 35 км 9/3 1000 м
[Sc Ac trans]
+5.6 +2.0 78 +5 +5 1017.2 1005.5
15 13.10 штиль 0 10 км 9/9 1000 м
[Sc]
+3.4 +1.6 88 +2 +2 1017.5 1005.7 +5.7
18 13.10 СЗ 1 10 км 9/5 1000 м
[Sc Ac trans]
+2.5 +1.2 91 +1 +1 1016.9 1005.2
21 13.10 СЗ 1 10 км 8/4 1000 м
[Sc Ac trans]
+2.5 +1.3 92 +1 +1 1016.5 1004.7
00 14.10 С 2 4000 м 9/6 1000 м
[Sc Ac trans]
0.0 -1.0 93 -4 -4 1016.3 1004.4
03 14.10 С 1 3100 м дымка 10/10 600 м
[Cb cap]
-0.8 -1.7 94 -3 -3 1016.7 1004.8 -1.1
06 14.10 СЗ 1 29 км 10/10 600 м
[Cb cap]
+0.8 -0.2 93 -1 -1 1016.8 1005.0
09 14.10 штиль 0 30 км 10/10 600 м
[Cb cap]
+2.8 +0.9 87 +2 +2 1016.3 1004.5
12 14.10 штиль 0 30 км 10/10 600 м
[Cb cap]
+3.3 +1.4 87 +2 +2 1016.0 1004.2
15 14.10 штиль 0 2000 м дымка 10/10 240 м
[St]
+2.1 +1.0 92 +1 +1 1016.4 1004.6 +3.8
18 14.10 штиль 0 200 м туман 10/10 240 м
[St]
+1.2 +0.3 94 -0 -0 1016.0 1004.2
21 14.10 штиль 0 200 м туман 10/10 210 м
[St]
+0.8 -0.1 94 -1 -1 1015.6 1003.8
00 15.10 ЮВ 1 200 м туман ?/? +0.2 -0.6 94 -2 -2 1015.1 1003.3
03 15.10 ЮВ 1 500 м туман 10/10 240 м
[St]
+0.1 -0.7 94 -2 -2 1014.9 1003.1 0.0
06 15.10 штиль 0 2800 м в посл. час туман 10/10 240 м
[St]
+1.2 +0.4 94 -0 -0 1014.7 1002.9
09 15.10 ЮВ 1 4500 м дымка 10/10 240 м
[St]
+3.2 +1.9 91 +2 +2 1014.3 1002.6
12 15.10 Ю 1 4600 м дымка 9/9 1000 м
[Sc]
+2.8 +1.4 90 +1 +1 1014.3 1002.6
15 15.10 СЗ 1 2000 м дымка 10/10 210 м
[St]
-0.6 -1.5 94 -3 -3 1015.1 1003.2 +3.5
18 15.10 штиль 0 4000 м дымка 10/10 270 м
[St]
+2.2 +1.2 93 +1 +1 1015.8 1004.1
21 15.10 В 1 10 км 10/10 200 м
[St]
+1.8 +0.8 93 -0 -0 1016.4 1004.6
00 16.10 В 1 10 км слабый ливневой снег 10/10 800 м
[Cb cap]
+1.2 +0.3 94 -1 -1 1016.8 1005.0
03 16.10 В 1 4100 м слабая морось {ливн. осадки} 10/10 270 м
[St]
+0.7 -0.3 93 -1 -1 1018.2 1006.3 -0.6 0.0
06 16.10 В 2 2900 м слабая морось {ливн. осадки} 10/10 240 м
[St]
+0.9 -0.1 93 -3 -3 1018.6 1006.7
09 16.10 В 1 17 км {морось} 10/10 480 м
[St]
+2.5 -0.2 82 +1 +1 1019.0 1007.2
12 16.10 штиль 0 24 км {морось} 10/6 600 м
[Cb cap As op]
+3.1 +0.1 81 +2 +2 1018.9 1007.1
15 16.10 штиль 0 10 км 9/8 660 м
[Cb cap Ac trans]
+1.2 -0.2 90 0 0 1019.7 1007.8 +3.3 0.0
18 16.10 В 1 10 км 10/10 570 м
[Cb cap]
+1.7 -0.1 88 -0 -0 1019.3 1007.4
21 16.10 штиль 0 4000 м дымка 10/4 1000 м
[Sc Ac As]
+0.5 -0.7 92 -1 -1 1018.2 1006.3
00 17.10 штиль 0 4000 м дымка 10/0
[Ac As]
+0.7 -0.7 90 -1 -1 1016.4 1004.6
03 17.10 Ю 1 25 км 9/3 1000 м
[Sc Ac trans]
+0.1 -1.1 92 -2 -2 1014.6 1002.8 +0.1
06 17.10 Ю 2 50 км 9/9 600 м
[Cb cap]
+1.5 -1.2 82 -2 -2 1012.1 1000.3
09 17.10 ЮВ 3 50 км в посл. час ливневой дождь 10/8 600 м
[Cb cap Ac As]
+3.5 -1.4 70 -0 0 1009.5 997.8
12 17.10 Ю 1 50 км {ливн. осадки} 10/8 600 м
[Cb cap Ac As]
+4.3 -1.1 68 +3 +3 1007.5 995.9
15 17.10 СЗ 1 10 км в посл. час ливневой дождь 10/10 600 м
[Cb cap]
+2.7 0.0 82 +1 +1 1005.2 993.5 +4.4 0.0
18 17.10 ЮЗ 1 10 км {ливн. осадки} 10/10 600 м
[Cb cap]
+1.2 -0.4 89 -1 -1 1002.1 990.5
21 17.10 штиль 0 10 км слабый ливневой дождь 10/10 800 м
[Cb cap]
+2.5 +1.2 91 +1 +1 1000.2 988.6
00 18.10 Ю 1 4000 м слабый ливневой дождь 10/10 600 м
[Cb cap]
+3.4 +2.4 93 +2 +2 998.3 986.7
03 18.10 Ю 1 5000 м слабый ливневой дождь 10/10 600 м
[Cb cap]
+5.0 +4.0 93 +4 +4 997.3 985.9 +1.0 5
06 18.10 ЮЗ 3 50 км {ливн. осадки} 9/9 600 м
[Cb cap]
+6.5 +4.3 86 +3 +3 997.5 986.1
09 18.10 Ю 2 50 км 8/8 600 м
[Cb cap]
+7.2 +2.1 70 +5 +6 997.6 986.2
12 18.10 ЮЗ 3 50 км 6/6 600 м
[Cb cap]
+6.4 +0.2 65 +4 +4 997.6 986.2
15 18.10 Ю 1 10 км 4/3 1000 м
[Sc Ci fib]
+2.0 -0.8 82 0 0 998.6 987.0 +8.2 0.4
18 18.10 ЮЗ 1 10 км 8/6 1170 м
[Sc Ci fib]
+2.3 -0.5 82 +1 +1 999.0 987.4
21 18.10 штиль 0 10 км 3/3 1000 м
[Sc Ci fib]
-1.1 -2.1 93 -2 -2 998.3 986.6
00 19.10 штиль 0 10 км 9/8 1000 м
[Sc Ci fib]
-0.7 -1.7 93 -2 -2 997.4 985.7
03 19.10 штиль 0 4900 м слабый ливневой дождь 10/10 750 м
[Cb cap]
-0.1 -1.1 93 -1 -1 996.3 984.6 -1.5 0.3
06 19.10 ЮВ 3 5000 м слабый ливневой дождь 9/9 480 м
[Cb cap]
+2.6 +1.4 92 -2 -2 994.3 982.8
09 19.10 ЮВ 2 7000 м слабый ливневой дождь 10/10 450 м
[Cb cap]
+3.9 +2.3 89 +1 +1 991.7 980.3
12 19.10 ЮВ 3 5000 м слабый ливневой дождь 10/10 570 м
[Cb cap]
+4.1 +2.8 91 0 0 990.1 978.7
15 19.10 ЮВ 1 4000 м слабый ливневой дождь 10/10 480 м
[Cb cap]
+4.3 +3.2 93 +3 +3 987.8 976.5 +4.5 4

 

Местоположение метеостанции Ивдель (Свердловская область, Россия): широта 60.68 долгота 60.45 высота над уровнем моря 94 м.

В архиве по умолчанию представлена погода в Ивдель за последнюю неделю. Архивные данные за месяц целиком и за предыдущие месяцы, начиная с января 2011 года, Вы можете получить, выбрав интересующий диапазон дат из раскрывающегося списка и нажав кнопку "Ввод!".

Внимание! Время в таблицах - всемирное. Для получения местного времени необходимо прибавить поправку, которая в Ивдель равна 5 ч.

Смотрите также архив погоды в соседних городах и на ближайших метеорологических станциях:

Погода в Североуральске (Свердловская область, Россия) (56 км)
Погода в Атымье (Свердловская область, Россия) (103 км)
Погода в Карпинске (Свердловская область, Россия) (106 км)
Погода в Серове (Свердловская область, Россия) (120 км)
Погода в Кытлыме (Свердловская область, Россия) (148 км)
Погода в Гари (Свердловская область, Россия) (174 км)
Погода в Няксимволе (Ханты-Мансийский АО, Россия) (196 км)
Погода в Верхотурье (Свердловская область, Россия) (202 км)
Погода в Ныробе (Пермский край, Россия) (203 км)
Погода в Шаиме (Ханты-Мансийский АО, Россия) (210 км)

Пояснения к столбцам:

Ветер - указаны скорость ветра в м/с - средняя за 10 мин, порывы в срок и между сроками (в фигурных скобках) и направление, откуда дует ветер: С - северный, СВ - северо-восточный, В - восточный, ЮВ - юго-восточный, Ю - южный, ЮЗ - юго-западный, З - западный, СЗ - северо-западный.
Видимость - горизонтальная дальность видимости в метрах или километрах. При видимости от 1 до 10 км при отсутствии осадков обычно наблюдается дымка, при ухудшении видимости до 1 км и менее - туман. В сухую погоду видимость может ухудшаться дымом, пылью или мглою.
Явления - указаны атмосферные явления, наблюдавшиеся в срок или в последний час перед сроком; фигурными скобками обозначены явления, наблюдавшиеся между сроками (за 1-3 часа до срока); квадратными скобками обозначены град или гололедные отложения с указанием их диаметра в мм.
Облачность - указаны через наклонную черту общая и нижняя облачность в баллах и высота нижней границы облаков в метрах; квадратными скобками обозначены формы облаков: Ci - перистые, Cs - перисто-слоистые, Cc - перисто-кучевые, Ac - высококучевые, As - высокослоистые, Sc - слоисто-кучевые, Ns - слоисто-дождевые, Cu - кучевые, Cb - кучево-дождевые. Подробнее классификацию облаков см. в Атласе облаков (PDF).
T - Температура воздуха - температура, измеренная на высоте 2 м над землей.
Td - Температура точки росы - температура, при понижении до которой содержащийся в воздухе водяной пар достигнет насыщения.
f - Относительная влажность воздуха - влажноcть воздуха, измеренная на высоте 2 м над землей.
Te - Эффективная температура - температура, которую ощущает одетый по сезону человек в тени. Характеристика душности погоды. При расчете учитывается влияние влажности воздуха и скорости ветра на теплоощущения человека.
Tes - Эффективная температура на солнце - температура, которую ощущает человек, с поправкой на солнечный нагрев. Характеристика знойности погоды. Зависит от высоты солнца над горизонтом, облачности и скорости ветра. Ночью, в пасмурную погоду, а также при ветре 12 м/с и более поправка равна нулю.
P - Атмосферное давление - приведенное к уровню моря атмосферное давление.
Po - Атмосферное давление - измеренное на уровне метеостанции атмосферное давление.
Tmin - Минимальная температура - минимум температуры воздуха на высоте 2 м над землей.
Tmax - Максимальная температура - максимум температуры воздуха на высоте 2 м над землей.
R - Количество осадков - Количество выпавших осадков за период времени, мм. При наведении курсора мыши на число - период времени, за который выпало указанное количество осадков.
R24 - Количество осадков - Количество выпавших осадков за 24 часа, мм.
S - Снежный покров - Высота снежного покрова, см. При наведении курсора мыши на число - состояние снежного покрова и степень покрытия местности в баллах.